Beidou DW 57

operational
NORAD ID: 58655 Int'l Des: 2023-207 Owner: CNSA Country: CN Constellation: BeiDou
MEOCIRCULAR

About Beidou DW 57

Description loading...

Live Position

Loading 3D Globe...

Upcoming Passes

Altitude History

Altitude vs Time

uPlot chart will show altitude changes over time

Two-Line Element Set

1 58655U 23207B 25298.44687448 -.00000017 00000-0 00000+0 0 9992
2 58655 55.5448 70.2220 0002182 231.6167 128.3495 1.86231452 12450
Epoch: Oct 25, 2025 • Age: 14 hours

Current Status

Altitude 21533.6 km
Velocity 3.78 km/s
Sub-Earth Point 20.09°N, 42.67°E
Launch Date Dec 26, 2023
Age 1.8 years
Type navigation

Technical Details

Classification Payload
Mass 1014.00 kg
Dry Mass 850.00 kg
Total Mass 1014.00 kg
Length 2.20 m
Diameter 1.70 m
Span 10.00 m
Shape Box + 2 Pan
Manufacturer CAST
Bus Type BD-3M
Phase Status In Orbit
Owner/State CNSA/CN

Large Constellations

Loading constellations...